Frederick, OK

1:34 PM CDT on October 22, 2017 (GMT -0500)
Frederick Municipal

Weather History for KFDR - November, 2012

Change the Weather History Date:

Monday, November 12, 2012

  Actual Average (KLTS) Record (KLTS)
Temperature  
Mean Temperature 41 °F -  
Max Temperature 54 °F 61 °F 80 °F (1999)
Min Temperature 28 °F 40 °F 23 °F (2014)
Degree Days  
Heating Degree Days 24    
Moisture  
Dew Point 20 °F    
Average Humidity 49    
Maximum Humidity 75    
Minimum Humidity 22    
Precipitation  
Precipitation 0.00 in - - ()
Sea Level Pressure  
Sea Level Pressure 30.44 in    
Wind  
Wind Speed 5 mph (West)    
Max Wind Speed 9 mph    
Max Gust Speed -    
Visibility 10 miles    
Events      
Averages and records for this station are not official NWS values.
T = Trace of Precipitation, MM = Missing Value Source: NWS Daily Summary

Daily Weather History Graph

Daily Weather History Graph

Search for Another Location

Airport or City:

Trip Planner

Search our weather history database for the weather conditions in past years. The results will help you decide how hot, cold, wet, or windy it might be!

Date:

Astronomy

Nov. 12, 2012 Rise Set
Actual Time 7:06 AM CST 5:33 PM CST
Civil Twilight 6:40 AM CST 5:59 PM CST
Nautical Twilight 6:09 AM CST 6:29 PM CST
Astronomical Twilight 5:40 AM CST 6:59 PM CST
Moon 5:36 AM CST (11/12) 4:38 PM CST (11/12)
Length of Visible Light 11h 19m
Length of Day
10h 26m
Waning Crescent, 2% of the Moon is Illuminated
Nov 12
Waning Crescent
Nov 13
New
Nov 20
First Quarter
Nov 28
Full
Dec 6
Last Quarter

Hourly Weather History & Observations

Time (CST) Temp. Windchill Dew Point Humidity Pressure Visibility Wind Dir Wind Speed Gust Speed Precip Events Conditions
12:53 AM 32.0 °F 26.4 °F 23.0 °F 69% 30.32 in 10.0 mi NNW 5.8 mph - N/A   Clear
1:53 AM 32.0 °F 27.5 °F 23.0 °F 69% 30.35 in 10.0 mi NW 4.6 mph - N/A   Clear
2:53 AM 32.0 °F 26.4 °F 24.1 °F 73% 30.36 in 10.0 mi NW 5.8 mph - N/A   Clear
3:53 AM 32.0 °F 24.8 °F 24.1 °F 73% 30.38 in 10.0 mi NNW 8.1 mph - N/A   Clear
4:53 AM 30.9 °F 26.2 °F 23.0 °F 72% 30.41 in 10.0 mi NW 4.6 mph - N/A   Clear
5:53 AM 30.0 °F 24.1 °F 21.9 °F 72% 30.44 in 10.0 mi NW 5.8 mph - N/A   Clear
6:53 AM 28.9 °F 22.8 °F 21.9 °F 75% 30.45 in 10.0 mi NW 5.8 mph - N/A   Clear
7:53 AM 33.1 °F 28.7 °F 24.1 °F 70% 30.46 in 10.0 mi NW 4.6 mph - N/A   Clear
8:53 AM 41.0 °F 38.0 °F 24.1 °F 51% 30.48 in 10.0 mi NW 4.6 mph - N/A   Clear
9:53 AM 44.1 °F 40.8 °F 19.9 °F 38% 30.50 in 10.0 mi West 5.8 mph - N/A   Clear
10:53 AM 46.9 °F - 19.0 °F 33% 30.51 in 10.0 mi NNW 4.6 mph - N/A   Clear
11:53 AM 48.9 °F - 17.1 °F 28% 30.50 in 10.0 mi West 4.6 mph - N/A   Clear
12:53 PM 51.1 °F - 17.1 °F 26% 30.47 in 10.0 mi Variable 4.6 mph - N/A   Clear
1:53 PM 52.0 °F - 16.0 °F 24% 30.44 in 10.0 mi Calm Calm - N/A   Clear
2:53 PM 53.1 °F - 15.1 °F 22% 30.43 in 10.0 mi SSW 4.6 mph - N/A   Clear
3:53 PM 54.0 °F - 16.0 °F 22% 30.42 in 10.0 mi SSE 4.6 mph - N/A   Clear
4:53 PM 53.1 °F - 15.1 °F 22% 30.43 in 10.0 mi South 6.9 mph - N/A   Clear
5:53 PM 48.9 °F - 16.0 °F 27% 30.43 in 10.0 mi SSE 4.6 mph - N/A   Clear
6:53 PM 42.1 °F 36.6 °F 19.0 °F 40% 30.45 in 10.0 mi SSE 9.2 mph - N/A   Clear
7:53 PM 39.9 °F 33.9 °F 19.9 °F 45% 30.46 in 10.0 mi SSE 9.2 mph - N/A   Clear
8:53 PM 37.9 °F 32.1 °F 21.0 °F 51% 30.46 in 10.0 mi SSE 8.1 mph - N/A   Clear
9:53 PM 36.0 °F 33.3 °F 21.0 °F 55% 30.47 in 10.0 mi SSE 3.5 mph - N/A   Clear
10:53 PM 37.0 °F 34.5 °F 21.9 °F 54% 30.47 in 10.0 mi SSW 3.5 mph - N/A   Clear
11:53 PM 36.0 °F 32.1 °F 21.0 °F 55% 30.47 in 10.0 mi SSW 4.6 mph - N/A   Clear